Lid_Strength_Index
1 1 1 1 1 1 1 1 -0 0 -0 0 -0 0 1 1 2 3 4 3 4 5
1 1 1 1 1 1 1 1 1 -0 0 -0 -0 1 3 4 5 4 5 6 7 8
1 1 1 1 1 1 1 1 1 1 0 0 0 3 5 6 6 7 7 7 9 9
1 1 1 1 1 1 1 1 1 1 1 1 2 4 5 8 9 10 10 10 11 12
1 1 1 1 1 1 1 1 1 1 2 2 4 5 8 9 10 11 11 12 13 12
1 1 1 1 1 1 1 1 2 3 3 4 5 6 9 10 11 13 11 13 13 12
1 1 1 1 1 1 1 2 4 3 5 6 7 9 10 11 13 13 13 13 12 12
1 1 1 1 2 1 2 5 6 7 8 8 9 10 11 11 13 13 13 12 12 11
1 1 2 2 2 3 5 7 9 10 11 10 11 12 12 12 13 12 13 11 10 10
1 2 2 2 3 5 7 9 10 11 11 11 12 13 12 11 11 13 12 12 11 11
2 2 2 3 5 7 8 10 11 11 12 13 13 13 12 12 13 13 13 13 12 12
2 2 2 4 7 8 10 10 11 13 13 14 14 14 13 13 13 14 13 12 12 12
1 2 3 5 7 8 10 11 11 13 13 13 15 14 14 14 14 14 13 12 13 13
2 3 5 6 7 9 11 12 13 15 14 14 15 15 14 14 14 14 13 14 14 13